Content
SEND FEEDBACK

Daily
Averages
Monthly
Summary
United States of America

CHESTERFIELD, MISSOURI


Home > North America > United States > Missouri
Elevation: 559 feet     Latitude: 38 41N     Longitude: 090 31W

WEATHER
 
SELECT A DAY
Number of Records: 206,460;   Date Range: 1/1/95 - 10/18/14
 
SHARE

PRINT THIS DATA

[ ← Previous Day ]
WEATHER ALMANAC - FEBRUARY 25, 2013
[ Next Day → ]
[ °C ]   °F
Weather ElementAverageHighLow
Temperature37.5 °F43 °F (12:51 pm)30 °F (1:51 am)
Dewpoint27.9 °F30.9 °F (6:51 pm)23 °F (1:51 am)
Humidity68.8 %82 % (10:51 pm)55 % (10:51 am)
Barometer29.91 in30.10 in (1:51 am)29.66 in (11:51 pm)
Wind Speed13.1 mph21.9 mph (9:41 pm)
Wind Gust28.8 mph (11:11 pm)
Weather ElementAverage
Visibility8.5 mi
Wind DirectionENE (68.8 °)

Weather ElementTotal
Precipitation0.23 in
Heating Degree Days28.5 (Base 65)
Averaged from 26 records on February 25, 2013
WEATHER CONDITIONS BREAKOUT
WIND DIRECTION BREAKOUT
WEATHER BY HOUR - FEBRUARY 25, 2013
[ °C ]   °F
Local TimeTemperatureDewpointHumidityBarometerVisibilityWind DirectionWind SpeedGust SpeedPrecipitationEventsConditions
1:51 AM30.0 °F23.0 °F75 %30.10 in10.0 miEast (80°)4.6 mphMostly Cloudy
2:51 AM32.0 °F25.0 °F75 %30.08 in9.0 miEast (90°)6.9 mphMostly Cloudy
3:51 AM30.9 °F24.1 °F76 %30.07 in8.0 miEast (80°)6.9 mphMostly Cloudy
4:51 AM32.0 °F24.8 °F75 %30.05 in8.0 miESE (110°)6.9 mphMostly Cloudy
5:51 AM33.1 °F25.0 °F72 %30.05 in8.0 miEast (100°)8.1 mphMostly Cloudy
6:51 AM32.0 °F24.1 °F73 %30.04 in7.0 miEast (100°)6.9 mphMostly Cloudy
7:51 AM33.1 °F25.0 °F72 %30.05 in7.0 miENE (70°)9.2 mphMostly Cloudy
8:51 AM37.0 °F26.1 °F65 %30.06 in8.0 miESE (110°)11.5 mphMostly Cloudy
9:51 AM39.0 °F27.0 °F62 %30.05 in8.0 miESE (120°)17.3 mphMostly Cloudy
10:51 AM42.1 °F27.0 °F55 %30.04 in9.0 miESE (120°)15.0 mphMostly Cloudy
11:51 AM42.1 °F28.0 °F58 %30.01 in10.0 miEast (80°)15.0 mphMostly Cloudy
12:51 PM43.0 °F28.0 °F56 %29.99 in10.0 miEast (80°)12.7 mphOvercast
1:51 PM43.0 °F28.9 °F58 %29.93 in10.0 miENE (70°)17.3 mphOvercast
2:51 PM43.0 °F28.0 °F56 %29.89 in10.0 miENE (70°)12.7 mph20.7 mphOvercast
3:51 PM43.0 °F28.0 °F56 %29.87 in10.0 miENE (70°)16.1 mph24.2 mphOvercast
4:51 PM41.0 °F30.0 °F65 %29.85 in10.0 miNE (40°)13.8 mphOvercast
5:51 PM39.9 °F28.9 °F65 %29.81 in10.0 miNE (40°)13.8 mphOvercast
6:51 PM39.9 °F30.9 °F70 %29.82 in10.0 miNE (50°)11.5 mph18.4 mphOvercast
7:51 PM39.9 °F30.0 °F68 %29.85 in10.0 miNorth (10°)10.4 mph0.00 inRainLight Rain
8:51 PM39.0 °F30.0 °F70 %29.80 in10.0 miNE (40°)16.1 mph23.0 mph0.00 inOvercast
9:41 PM37.4 °F30.2 °F75 %29.74 in7.0 miNE (40°)21.9 mph27.6 mph0.00 inRainLight Rain
9:51 PM37.9 °F30.0 °F73 %29.75 in6.0 miNE (40°)18.4 mph27.6 mph0.00 inRainLight Rain
10:06 PM37.4 °F30.2 °F75 %29.74 in6.0 miNE (40°)18.4 mph25.3 mph0.03 inRainLight Rain
10:51 PM36.0 °F30.9 °F82 %29.72 in6.0 miNE (50°)15.0 mph21.9 mph0.11 inRainLight Rain
11:11 PM35.6 °F30.2 °F81 %29.69 in6.0 miNE (50°)15.0 mph28.8 mph0.02 inRainLight Rain
11:51 PM36.0 °F30.9 °F82 %29.66 in7.0 miNE (40°)18.4 mph26.5 mph0.07 inRainLight Rain
Hourly data recorded from KSTL, located miles away from Chesterfield, Missouri







STORIES FROM OUR PARTNERS